Tabellarische Ansicht des 2.5.2012


Die einzelnen Werte des Tages

Uhrzeit Temperatur Luftdruck Luftfeuchte Wind Hi-Wind Taupunkt THW Index Wind Chill Heat Index Solar- strahlung Regen

00:00

12.9 C

1014.9 hpa

92 %

0.0 km/h aus 107

0.0 km/h aus ---

11.7 C

13.0 C

12.9 C

13.0 C

0 W/m

0.00 mm

00:05

12.9 C

1014.9 hpa

92 %

0.0 km/h aus 107

0.0 km/h aus ---

11.6 C

12.9 C

12.9 C

12.9 C

0 W/m

0.00 mm

00:10

12.8 C

1014.9 hpa

92 %

0.0 km/h aus 100

0.0 km/h aus ---

11.6 C

12.9 C

12.8 C

12.9 C

0 W/m

0.00 mm

00:15

12.8 C

1014.9 hpa

92 %

0.0 km/h aus 107

3.2 km/h aus WSW

11.5 C

12.8 C

12.8 C

12.8 C

0 W/m

0.00 mm

00:20

12.7 C

1014.9 hpa

92 %

1.6 km/h aus 104

3.2 km/h aus WSW

11.4 C

12.7 C

12.7 C

12.7 C

0 W/m

0.00 mm

00:25

12.8 C

1014.9 hpa

92 %

1.6 km/h aus 99

4.8 km/h aus WSW

11.5 C

12.8 C

12.8 C

12.8 C

0 W/m

0.00 mm

00:30

13.1 C

1014.9 hpa

93 %

4.8 km/h aus 109

9.7 km/h aus WSW

11.9 C

13.2 C

13.1 C

13.2 C

0 W/m

0.00 mm

00:35

13.3 C

1014.9 hpa

93 %

3.2 km/h aus 104

6.4 km/h aus WSW

12.2 C

13.4 C

13.3 C

13.4 C

0 W/m

0.00 mm

00:40

13.4 C

1014.9 hpa

92 %

3.2 km/h aus 107

8.0 km/h aus WSW

12.2 C

13.5 C

13.4 C

13.5 C

0 W/m

0.00 mm

00:45

13.5 C

1014.9 hpa

92 %

3.2 km/h aus 110

6.4 km/h aus WSW

12.2 C

13.6 C

13.5 C

13.6 C

0 W/m

0.00 mm

00:50

13.7 C

1014.9 hpa

92 %

3.2 km/h aus 102

4.8 km/h aus WSW

12.4 C

13.7 C

13.7 C

13.7 C

0 W/m

0.00 mm

00:55

13.7 C

1014.9 hpa

91 %

3.2 km/h aus 103

8.0 km/h aus WSW

12.3 C

13.8 C

13.7 C

13.8 C

0 W/m

0.00 mm

01:00

13.8 C

1014.8 hpa

91 %

3.2 km/h aus 103

8.0 km/h aus WSW

12.3 C

13.8 C

13.8 C

13.8 C

0 W/m

0.00 mm

01:05

13.7 C

1014.8 hpa

90 %

1.6 km/h aus 107

4.8 km/h aus WSW

12.1 C

13.8 C

13.7 C

13.8 C

0 W/m

0.00 mm

01:10

13.6 C

1014.8 hpa

90 %

3.2 km/h aus 98

6.4 km/h aus WSW

12.0 C

13.7 C

13.6 C

13.7 C

0 W/m

0.00 mm

01:15

13.6 C

1014.7 hpa

90 %

3.2 km/h aus 93

6.4 km/h aus WSW

11.9 C

13.6 C

13.6 C

13.6 C

0 W/m

0.00 mm

01:20

13.5 C

1014.7 hpa

90 %

3.2 km/h aus 99

4.8 km/h aus WSW

11.9 C

13.6 C

13.5 C

13.6 C

0 W/m

0.00 mm

01:25

13.3 C

1014.7 hpa

90 %

1.6 km/h aus 110

4.8 km/h aus WSW

11.7 C

13.4 C

13.3 C

13.4 C

0 W/m

0.00 mm

01:30

13.2 C

1014.6 hpa

90 %

0.0 km/h aus 110

1.6 km/h aus WSW

11.6 C

13.2 C

13.2 C

13.2 C

0 W/m

0.00 mm

01:35

13.1 C

1014.6 hpa

90 %

0.0 km/h aus 104

3.2 km/h aus WSW

11.5 C

13.1 C

13.1 C

13.1 C

0 W/m

0.00 mm

01:40

12.8 C

1014.6 hpa

90 %

0.0 km/h aus 108

3.2 km/h aus WSW

11.2 C

12.9 C

12.8 C

12.9 C

0 W/m

0.00 mm

01:45

12.8 C

1014.4 hpa

91 %

1.6 km/h aus 103

4.8 km/h aus WSW

11.3 C

12.8 C

12.8 C

12.8 C

0 W/m

0.00 mm

01:50

12.7 C

1014.4 hpa

91 %

0.0 km/h aus 107

3.2 km/h aus WSW

11.2 C

12.7 C

12.7 C

12.7 C

0 W/m

0.00 mm

01:55

12.7 C

1014.4 hpa

91 %

1.6 km/h aus 102

4.8 km/h aus WSW

11.2 C

12.7 C

12.7 C

12.7 C

0 W/m

0.00 mm

02:00

12.7 C

1014.4 hpa

92 %

3.2 km/h aus 103

6.4 km/h aus WSW

11.4 C

12.7 C

12.7 C

12.7 C

0 W/m

0.00 mm

02:05

12.8 C

1014.4 hpa

92 %

1.6 km/h aus 107

4.8 km/h aus WSW

11.5 C

12.8 C

12.8 C

12.8 C

0 W/m

0.00 mm

02:10

12.8 C

1014.4 hpa

92 %

1.6 km/h aus 107

6.4 km/h aus WSW

11.5 C

12.8 C

12.8 C

12.8 C

0 W/m

0.00 mm

02:15

12.8 C

1014.6 hpa

92 %

1.6 km/h aus 104

6.4 km/h aus WSW

11.6 C

12.9 C

12.8 C

12.9 C

0 W/m

0.00 mm

02:20

12.8 C

1014.6 hpa

92 %

3.2 km/h aus 104

6.4 km/h aus WSW

11.5 C

12.8 C

12.8 C

12.8 C

0 W/m

0.00 mm

02:25

12.8 C

1014.6 hpa

92 %

4.8 km/h aus 98

8.0 km/h aus WSW

11.6 C

12.9 C

12.8 C

12.9 C

0 W/m

0.00 mm

02:30

12.8 C

1014.4 hpa

92 %

1.6 km/h aus 102

4.8 km/h aus WSW

11.6 C

12.9 C

12.8 C

12.9 C

0 W/m

0.00 mm

02:35

12.8 C

1014.4 hpa

92 %

1.6 km/h aus 101

6.4 km/h aus WSW

11.5 C

12.8 C

12.8 C

12.8 C

0 W/m

0.00 mm

02:40

12.7 C

1014.4 hpa

92 %

1.6 km/h aus 103

6.4 km/h aus WSW

11.4 C

12.7 C

12.7 C

12.7 C

0 W/m

0.00 mm

02:45

12.6 C

1014.4 hpa

91 %

1.6 km/h aus 106

6.4 km/h aus WSW

11.2 C

12.7 C

12.6 C

12.7 C

0 W/m

0.00 mm

02:50

12.4 C

1014.4 hpa

91 %

1.6 km/h aus 100

6.4 km/h aus WSW

11.0 C

12.5 C

12.4 C

12.5 C

0 W/m

0.00 mm

02:55

12.4 C

1014.4 hpa

92 %

1.6 km/h aus 109

3.2 km/h aus WSW

11.1 C

12.4 C

12.4 C

12.4 C

0 W/m

0.00 mm

03:00

12.3 C

1014.4 hpa

92 %

0.0 km/h aus 109

3.2 km/h aus WSW

11.0 C

12.3 C

12.3 C

12.3 C

0 W/m

0.00 mm

03:05

12.2 C

1014.4 hpa

92 %

0.0 km/h aus 108

1.6 km/h aus WSW

10.9 C

12.2 C

12.2 C

12.2 C

0 W/m

0.00 mm

03:10

12.0 C

1014.4 hpa

92 %

0.0 km/h aus 104

1.6 km/h aus WSW

10.7 C

12.1 C

12.0 C

12.1 C

0 W/m

0.00 mm

03:15

11.8 C

1014.3 hpa

92 %

0.0 km/h aus 99

1.6 km/h aus WSW

10.6 C

11.9 C

11.8 C

11.9 C

0 W/m

0.00 mm

03:20

11.7 C

1014.3 hpa

92 %

0.0 km/h aus 108

1.6 km/h aus WSW

10.4 C

11.8 C

11.7 C

11.8 C

0 W/m

0.00 mm

03:25

11.5 C

1014.3 hpa

92 %

0.0 km/h aus 107

1.6 km/h aus WSW

10.2 C

11.6 C

11.5 C

11.6 C

0 W/m

0.00 mm

03:30

11.3 C

1014.2 hpa

92 %

0.0 km/h aus 106

3.2 km/h aus WSW

10.0 C

11.4 C

11.3 C

11.4 C

0 W/m

0.00 mm

03:35

11.3 C

1014.2 hpa

93 %

0.0 km/h aus 100

1.6 km/h aus WSW

10.2 C

11.4 C

11.3 C

11.4 C

0 W/m

0.00 mm

03:40

11.1 C

1014.2 hpa

93 %

0.0 km/h aus 101

1.6 km/h aus WSW

10.0 C

11.3 C

11.1 C

11.3 C

0 W/m

0.00 mm

03:45

10.9 C

1014.2 hpa

93 %

0.0 km/h aus 110

1.6 km/h aus WSW

9.8 C

11.1 C

10.9 C

11.1 C

0 W/m

0.00 mm

03:50

10.9 C

1014.2 hpa

93 %

0.0 km/h aus 99

1.6 km/h aus WSW

9.8 C

11.1 C

10.9 C

11.1 C

0 W/m

0.00 mm

03:55

11.1 C

1014.2 hpa

93 %

1.6 km/h aus 105

3.2 km/h aus WSW

10.0 C

11.2 C

11.1 C

11.2 C

0 W/m

0.00 mm

04:00

11.1 C

1014.2 hpa

93 %

0.0 km/h aus 104

3.2 km/h aus WSW

10.0 C

11.2 C

11.1 C

11.2 C

0 W/m

0.00 mm

04:05

11.1 C

1014.2 hpa

93 %

0.0 km/h aus 108

1.6 km/h aus WSW

10.0 C

11.2 C

11.1 C

11.2 C

0 W/m

0.00 mm

04:10

11.2 C

1014.2 hpa

93 %

1.6 km/h aus 103

3.2 km/h aus WSW

10.1 C

11.3 C

11.2 C

11.3 C

0 W/m

0.00 mm

04:15

11.2 C

1014.3 hpa

94 %

0.0 km/h aus 103

1.6 km/h aus WSW

10.3 C

11.4 C

11.2 C

11.4 C

0 W/m

0.00 mm

04:20

11.3 C

1014.3 hpa

94 %

0.0 km/h aus 98

1.6 km/h aus WSW

10.3 C

11.4 C

11.3 C

11.4 C

0 W/m

0.00 mm

04:25

11.2 C

1014.3 hpa

93 %

0.0 km/h aus 103

3.2 km/h aus WSW

10.1 C

11.3 C

11.2 C

11.3 C

0 W/m

0.00 mm

04:30

11.2 C

1014.0 hpa

94 %

0.0 km/h aus 100

3.2 km/h aus WSW

10.2 C

11.3 C

11.2 C

11.3 C

0 W/m

0.00 mm

04:35

11.0 C

1014.0 hpa

94 %

0.0 km/h aus 99

0.0 km/h aus ---

10.1 C

11.2 C

11.0 C

11.2 C

0 W/m

0.00 mm

04:40

10.9 C

1014.0 hpa

94 %

0.0 km/h aus 106

1.6 km/h aus WSW

10.0 C

11.1 C

10.9 C

11.1 C

0 W/m

0.00 mm

04:45

10.9 C

1014.0 hpa

94 %

1.6 km/h aus 104

4.8 km/h aus WSW

10.0 C

11.1 C

10.9 C

11.1 C

0 W/m

0.00 mm

04:50

11.2 C

1014.0 hpa

94 %

3.2 km/h aus 104

6.4 km/h aus WSW

10.2 C

11.3 C

11.2 C

11.3 C

0 W/m

0.00 mm

04:55

11.4 C

1014.0 hpa

94 %

3.2 km/h aus 98

6.4 km/h aus WSW

10.5 C

11.6 C

11.4 C

11.6 C

0 W/m

0.00 mm

05:00

11.4 C

1014.0 hpa

94 %

1.6 km/h aus 105

4.8 km/h aus WSW

10.5 C

11.6 C

11.4 C

11.6 C

0 W/m

0.00 mm

05:05

11.5 C

1014.0 hpa

94 %

1.6 km/h aus 105

4.8 km/h aus WSW

10.6 C

11.7 C

11.5 C

11.7 C

0 W/m

0.00 mm

05:10

11.4 C

1014.0 hpa

94 %

0.0 km/h aus 108

3.2 km/h aus WSW

10.5 C

11.6 C

11.4 C

11.6 C

0 W/m

0.00 mm

05:15

11.4 C

1013.8 hpa

94 %

1.6 km/h aus 105

4.8 km/h aus WSW

10.5 C

11.6 C

11.4 C

11.6 C

0 W/m

0.00 mm

05:20

11.4 C

1013.8 hpa

94 %

1.6 km/h aus 106

4.8 km/h aus WSW

10.5 C

11.6 C

11.4 C

11.6 C

0 W/m

0.00 mm

05:25

11.3 C

1013.8 hpa

94 %

0.0 km/h aus 102

3.2 km/h aus WSW

10.4 C

11.5 C

11.3 C

11.5 C

0 W/m

0.00 mm

05:30

11.3 C

1013.8 hpa

94 %

1.6 km/h aus 103

3.2 km/h aus WSW

10.3 C

11.4 C

11.3 C

11.4 C

0 W/m

0.00 mm

05:35

11.2 C

1013.8 hpa

94 %

1.6 km/h aus 92

4.8 km/h aus WSW

10.3 C

11.4 C

11.2 C

11.4 C

0 W/m

0.00 mm

05:40

11.2 C

1013.8 hpa

94 %

3.2 km/h aus 83

6.4 km/h aus WSW

10.3 C

11.4 C

11.2 C

11.4 C

0 W/m

0.00 mm

05:45

11.2 C

1013.8 hpa

94 %

0.0 km/h aus 97

1.6 km/h aus WSW

10.2 C

11.3 C

11.2 C

11.3 C

0 W/m

0.00 mm

05:50

11.1 C

1013.8 hpa

94 %

1.6 km/h aus 102

4.8 km/h aus WSW

10.2 C

11.3 C

11.1 C

11.3 C

0 W/m

0.00 mm

05:55

11.1 C

1013.8 hpa

94 %

0.0 km/h aus 108

6.4 km/h aus WSW

10.1 C

11.2 C

11.1 C

11.2 C

0 W/m

0.00 mm

06:00

11.1 C

1013.8 hpa

94 %

0.0 km/h aus 106

3.2 km/h aus WSW

10.1 C

11.2 C

11.1 C

11.2 C

0 W/m

0.00 mm

06:05

11.0 C

1013.8 hpa

94 %

3.2 km/h aus 105

6.4 km/h aus WSW

10.1 C

11.2 C

11.0 C

11.2 C

0 W/m

0.00 mm

06:10

11.0 C

1013.8 hpa

94 %

1.6 km/h aus 102

4.8 km/h aus WSW

10.1 C

11.2 C

11.0 C

11.2 C

0 W/m

0.00 mm

06:15

11.0 C

1013.8 hpa

94 %

0.0 km/h aus 100

3.2 km/h aus WSW

10.1 C

11.2 C

11.0 C

11.2 C

0 W/m

0.00 mm

06:20

11.0 C

1013.8 hpa

94 %

0.0 km/h aus 96

3.2 km/h aus WSW

10.1 C

11.2 C

11.0 C

11.2 C

0 W/m

0.00 mm

06:25

10.9 C

1013.8 hpa

94 %

1.6 km/h aus 103

4.8 km/h aus WSW

10.0 C

11.1 C

10.9 C

11.1 C

0 W/m

0.00 mm

06:30

11.0 C

1013.8 hpa

94 %

1.6 km/h aus 105

3.2 km/h aus WSW

10.1 C

11.2 C

11.0 C

11.2 C

0 W/m

0.00 mm

06:35

11.0 C

1013.8 hpa

94 %

1.6 km/h aus 102

6.4 km/h aus WSW

10.1 C

11.2 C

11.0 C

11.2 C

0 W/m

0.00 mm

06:40

11.0 C

1013.8 hpa

94 %

3.2 km/h aus 104

6.4 km/h aus WSW

10.1 C

11.2 C

11.0 C

11.2 C

0 W/m

0.00 mm

06:45

10.9 C

1013.8 hpa

94 %

1.6 km/h aus 93

8.0 km/h aus WSW

10.0 C

11.1 C

10.9 C

11.1 C

0 W/m

0.00 mm

06:50

10.8 C

1013.8 hpa

94 %

3.2 km/h aus 107

8.0 km/h aus WSW

9.9 C

11.0 C

10.8 C

11.0 C

0 W/m

0.00 mm

06:55

10.8 C

1013.8 hpa

94 %

3.2 km/h aus 107

6.4 km/h aus WSW

9.9 C

11.0 C

10.8 C

11.0 C

0 W/m

0.00 mm

07:00

10.9 C

1013.8 hpa

94 %

3.2 km/h aus 95

8.0 km/h aus WSW

10.0 C

11.1 C

10.9 C

11.1 C

0 W/m

0.00 mm

07:05

10.9 C

1013.8 hpa

94 %

1.6 km/h aus 103

8.0 km/h aus WSW

10.0 C

11.1 C

10.9 C

11.1 C

0 W/m

0.00 mm

07:10

10.9 C

1013.8 hpa

94 %

3.2 km/h aus 104

8.0 km/h aus WSW

10.0 C

11.1 C

10.9 C

11.1 C

0 W/m

0.00 mm

07:15

11.1 C

1013.8 hpa

93 %

4.8 km/h aus 95

9.7 km/h aus W

10.0 C

11.2 C

11.0 C

11.2 C

0 W/m

0.00 mm

07:20

11.1 C

1013.8 hpa

93 %

4.8 km/h aus 100

9.7 km/h aus W

10.0 C

11.2 C

11.1 C

11.3 C

0 W/m

0.00 mm

07:25

11.2 C

1013.8 hpa

93 %

3.2 km/h aus 110

8.0 km/h aus W

10.1 C

11.3 C

11.2 C

11.3 C

0 W/m

0.00 mm

07:30

11.3 C

1013.8 hpa

93 %

1.6 km/h aus 107

8.0 km/h aus W

10.2 C

11.4 C

11.3 C

11.4 C

0 W/m

0.00 mm

07:35

11.4 C

1013.8 hpa

92 %

3.2 km/h aus 113

8.0 km/h aus W

10.2 C

11.6 C

11.4 C

11.6 C

0 W/m

0.00 mm

07:40

11.6 C

1013.8 hpa

92 %

3.2 km/h aus 104

8.0 km/h aus W

10.3 C

11.7 C

11.6 C

11.7 C

0 W/m

0.00 mm

07:45

11.6 C

1013.7 hpa

91 %

3.2 km/h aus 110

8.0 km/h aus W

10.2 C

11.7 C

11.6 C

11.7 C

0 W/m

0.00 mm

07:50

11.8 C

1013.7 hpa

91 %

3.2 km/h aus 110

9.7 km/h aus WNW

10.4 C

11.9 C

11.8 C

11.9 C

0 W/m

0.00 mm

07:55

12.0 C

1013.7 hpa

90 %

3.2 km/h aus 113

8.0 km/h aus WNW

10.4 C

12.1 C

12.0 C

12.1 C

0 W/m

0.00 mm

08:00

12.2 C

1013.5 hpa

89 %

3.2 km/h aus 106

9.7 km/h aus WNW

10.4 C

12.2 C

12.2 C

12.2 C

0 W/m

0.00 mm

08:05

12.3 C

1013.5 hpa

88 %

1.6 km/h aus 105

6.4 km/h aus WNW

10.3 C

12.3 C

12.3 C

12.3 C

0 W/m

0.00 mm

08:10

12.4 C

1013.5 hpa

88 %

1.6 km/h aus 111

6.4 km/h aus WNW

10.5 C

12.4 C

12.4 C

12.4 C

0 W/m

0.00 mm

08:15

12.5 C

1013.3 hpa

89 %

3.2 km/h aus 110

8.0 km/h aus WNW

10.7 C

12.6 C

12.5 C

12.6 C

0 W/m

0.00 mm

08:20

12.6 C

1013.3 hpa

86 %

1.6 km/h aus 108

4.8 km/h aus WNW

10.3 C

12.5 C

12.6 C

12.5 C

0 W/m

0.00 mm

08:25

12.8 C

1013.3 hpa

86 %

0.0 km/h aus 112

3.2 km/h aus WNW

10.5 C

12.7 C

12.8 C

12.7 C

0 W/m

0.00 mm

08:30

12.8 C

1013.3 hpa

86 %

1.6 km/h aus 114

3.2 km/h aus WNW

10.5 C

12.7 C

12.8 C

12.7 C

0 W/m

0.00 mm

08:35

12.8 C

1013.3 hpa

85 %

3.2 km/h aus 108

4.8 km/h aus WNW

10.4 C

12.8 C

12.8 C

12.8 C

0 W/m

0.00 mm

08:40

12.9 C

1013.3 hpa

85 %

1.6 km/h aus 113

6.4 km/h aus WNW

10.5 C

12.9 C

12.9 C

12.9 C

0 W/m

0.00 mm

08:45

13.1 C

1013.1 hpa

84 %

3.2 km/h aus 111

6.4 km/h aus WNW

10.4 C

13.0 C

13.1 C

13.0 C

0 W/m

0.00 mm

08:50

13.2 C

1013.1 hpa

84 %

4.8 km/h aus 112

8.0 km/h aus WNW

10.6 C

13.2 C

13.2 C

13.2 C

0 W/m

0.00 mm

08:55

13.3 C

1013.1 hpa

84 %

3.2 km/h aus 111

8.0 km/h aus WNW

10.7 C

13.3 C

13.3 C

13.3 C

0 W/m

0.00 mm

09:00

13.5 C

1013.1 hpa

84 %

4.8 km/h aus 110

9.7 km/h aus WNW

10.8 C

13.4 C

13.5 C

13.4 C

0 W/m

0.00 mm

09:05

13.7 C

1013.1 hpa

83 %

4.8 km/h aus 113

9.7 km/h aus NW

10.8 C

13.6 C

13.7 C

13.6 C

0 W/m

0.00 mm

09:10

13.9 C

1013.1 hpa

83 %

3.2 km/h aus 106

8.0 km/h aus NW

11.0 C

13.8 C

13.9 C

13.8 C

0 W/m

0.00 mm

09:15

14.0 C

1013.2 hpa

82 %

4.8 km/h aus 109

9.7 km/h aus NW

11.0 C

13.9 C

14.0 C

13.9 C

0 W/m

0.00 mm

09:20

14.3 C

1013.2 hpa

82 %

4.8 km/h aus 109

8.0 km/h aus NW

11.2 C

14.2 C

14.3 C

14.2 C

0 W/m

0.00 mm

09:25

14.6 C

1013.2 hpa

81 %

3.2 km/h aus 111

6.4 km/h aus NW

11.3 C

14.4 C

14.6 C

14.4 C

0 W/m

0.00 mm

09:30

14.8 C

1013.0 hpa

80 %

3.2 km/h aus 108

9.7 km/h aus NNW

11.4 C

14.7 C

14.8 C

14.7 C

0 W/m

0.00 mm

09:35

14.6 C

1013.0 hpa

79 %

6.4 km/h aus 105

9.7 km/h aus NNW

11.0 C

14.4 C

14.6 C

14.4 C

0 W/m

0.00 mm

09:40

14.9 C

1013.0 hpa

80 %

4.8 km/h aus 98

11.3 km/h aus NNW

11.5 C

14.8 C

14.9 C

14.8 C

0 W/m

0.00 mm

09:45

14.9 C

1012.8 hpa

79 %

6.4 km/h aus 108

11.3 km/h aus NNW

11.3 C

14.7 C

14.9 C

14.7 C

0 W/m

0.00 mm

09:50

15.1 C

1012.8 hpa

79 %

3.2 km/h aus 113

9.7 km/h aus NNW

11.4 C

14.9 C

15.1 C

14.9 C

0 W/m

0.00 mm

09:55

15.4 C

1012.8 hpa

78 %

4.8 km/h aus 113

8.0 km/h aus NNW

11.6 C

15.3 C

15.4 C

15.3 C

0 W/m

0.00 mm

10:00

15.6 C

1012.6 hpa

76 %

4.8 km/h aus 114

11.3 km/h aus NNW

11.3 C

15.4 C

15.6 C

15.4 C

0 W/m

0.00 mm

10:05

15.4 C

1012.6 hpa

76 %

6.4 km/h aus 110

14.5 km/h aus NNW

11.2 C

15.2 C

15.4 C

15.2 C

0 W/m

0.00 mm

10:10

15.7 C

1012.6 hpa

77 %

4.8 km/h aus 112

14.5 km/h aus NNW

11.6 C

15.5 C

15.7 C

15.5 C

0 W/m

0.00 mm

10:15

15.8 C

1012.8 hpa

77 %

4.8 km/h aus 113

11.3 km/h aus NNW

11.8 C

15.7 C

15.8 C

15.7 C

0 W/m

0.00 mm

10:20

16.0 C

1012.8 hpa

76 %

6.4 km/h aus 112

16.1 km/h aus NNW

11.8 C

15.8 C

16.0 C

15.8 C

0 W/m

0.00 mm

10:25

16.0 C

1012.8 hpa

77 %

6.4 km/h aus 105

16.1 km/h aus NNW

12.0 C

15.9 C

16.0 C

15.9 C

0 W/m

0.00 mm

10:30

16.3 C

1012.6 hpa

76 %

8.0 km/h aus 113

17.7 km/h aus NNW

12.1 C

16.2 C

16.3 C

16.2 C

0 W/m

0.00 mm

10:35

16.6 C

1012.6 hpa

75 %

8.0 km/h aus 114

17.7 km/h aus NNW

12.2 C

16.5 C

16.6 C

16.5 C

0 W/m

0.00 mm

10:40

16.8 C

1012.6 hpa

73 %

6.4 km/h aus 115

16.1 km/h aus NNW

12.0 C

16.7 C

16.8 C

16.7 C

0 W/m

0.00 mm

10:45

16.8 C

1012.3 hpa

74 %

9.7 km/h aus 112

17.7 km/h aus NNW

12.2 C

16.7 C

16.8 C

16.7 C

0 W/m

0.00 mm

10:50

16.9 C

1012.3 hpa

72 %

9.7 km/h aus 114

17.7 km/h aus NNW

11.9 C

16.8 C

16.9 C

16.8 C

0 W/m

0.00 mm

10:55

17.2 C

1012.3 hpa

74 %

8.0 km/h aus 114

16.1 km/h aus N

12.5 C

17.2 C

17.2 C

17.2 C

0 W/m

0.00 mm

11:00

17.6 C

1012.2 hpa

73 %

8.0 km/h aus 108

19.3 km/h aus NW

12.7 C

17.5 C

17.6 C

17.5 C

0 W/m

0.00 mm

11:05

17.8 C

1012.2 hpa

72 %

4.8 km/h aus 112

14.5 km/h aus NNW

12.7 C

17.8 C

17.8 C

17.8 C

0 W/m

0.00 mm

11:10

17.9 C

1012.2 hpa

71 %

4.8 km/h aus 107

14.5 km/h aus NNW

12.6 C

17.9 C

17.9 C

17.9 C

0 W/m

0.00 mm

11:15

18.1 C

1012.1 hpa

72 %

8.0 km/h aus 109

16.1 km/h aus NNW

13.0 C

18.1 C

18.1 C

18.1 C

0 W/m

0.00 mm

11:20

18.3 C

1012.1 hpa

69 %

6.4 km/h aus 112

14.5 km/h aus NNW

12.5 C

18.3 C

18.3 C

18.3 C

0 W/m

0.00 mm

11:25

18.9 C

1012.1 hpa

72 %

4.8 km/h aus 111

11.3 km/h aus NNW

13.7 C

19.1 C

18.9 C

19.1 C

0 W/m

0.00 mm

11:30

19.3 C

1011.8 hpa

68 %

8.0 km/h aus 114

19.3 km/h aus N

13.3 C

19.4 C

19.3 C

19.4 C

0 W/m

0.00 mm

11:35

19.4 C

1011.8 hpa

65 %

8.0 km/h aus 114

17.7 km/h aus NE

12.6 C

19.4 C

19.4 C

19.4 C

0 W/m

0.00 mm

11:40

19.5 C

1011.8 hpa

66 %

8.0 km/h aus 112

20.9 km/h aus N

13.0 C

19.6 C

19.5 C

19.6 C

0 W/m

0.00 mm

11:45

19.6 C

1011.7 hpa

66 %

11.3 km/h aus 115

20.9 km/h aus NNE

13.0 C

19.6 C

19.6 C

19.6 C

0 W/m

0.00 mm

11:50

19.9 C

1011.7 hpa

67 %

4.8 km/h aus 116

20.9 km/h aus NE

13.6 C

20.1 C

19.9 C

20.1 C

0 W/m

0.00 mm

11:55

19.8 C

1011.7 hpa

65 %

11.3 km/h aus 112

22.5 km/h aus NE

13.0 C

19.8 C

19.8 C

19.8 C

0 W/m

0.00 mm

12:00

19.8 C

1011.6 hpa

66 %

6.4 km/h aus 115

17.7 km/h aus NNE

13.2 C

19.9 C

19.8 C

19.9 C

0 W/m

0.00 mm

12:05

20.3 C

1011.6 hpa

64 %

9.7 km/h aus 117

20.9 km/h aus ENE

13.3 C

20.3 C

20.3 C

20.3 C

0 W/m

0.00 mm

12:10

20.5 C

1011.6 hpa

66 %

6.4 km/h aus 113

14.5 km/h aus NNE

13.9 C

20.5 C

20.5 C

20.5 C

0 W/m

0.00 mm

12:15

20.6 C

1011.3 hpa

64 %

6.4 km/h aus 114

19.3 km/h aus N

13.5 C

20.4 C

20.6 C

20.4 C

0 W/m

0.00 mm

12:20

20.7 C

1011.3 hpa

66 %

6.4 km/h aus 107

16.1 km/h aus NNW

14.1 C

20.7 C

20.7 C

20.7 C

0 W/m

0.00 mm

12:25

20.7 C

1011.3 hpa

64 %

4.8 km/h aus 114

11.3 km/h aus NNW

13.7 C

20.6 C

20.7 C

20.6 C

0 W/m

0.00 mm

12:30

20.6 C

1011.2 hpa

65 %

6.4 km/h aus 115

14.5 km/h aus NNW

13.7 C

20.5 C

20.6 C

20.5 C

0 W/m

0.00 mm

12:35

20.7 C

1011.2 hpa

63 %

8.0 km/h aus 115

19.3 km/h aus N

13.4 C

20.5 C

20.7 C

20.5 C

0 W/m

0.00 mm

12:40

20.8 C

1011.2 hpa

65 %

11.3 km/h aus 117

19.3 km/h aus NW

14.0 C

20.7 C

20.8 C

20.7 C

0 W/m

0.00 mm

12:45

20.6 C

1011.2 hpa

65 %

8.0 km/h aus 113

19.3 km/h aus NW

13.8 C

20.6 C

20.6 C

20.6 C

0 W/m

0.00 mm

12:50

20.9 C

1011.2 hpa

65 %

9.7 km/h aus 114

20.9 km/h aus NW

14.1 C

20.8 C

20.9 C

20.8 C

0 W/m

0.00 mm

12:55

21.3 C

1011.2 hpa

65 %

9.7 km/h aus 113

20.9 km/h aus NNW

14.4 C

21.2 C

21.3 C

21.2 C

0 W/m

0.00 mm

13:00

21.6 C

1011.0 hpa

64 %

8.0 km/h aus 116

14.5 km/h aus NNW

14.5 C

21.5 C

21.6 C

21.5 C

0 W/m

0.00 mm

13:05

21.7 C

1011.0 hpa

64 %

6.4 km/h aus 116

16.1 km/h aus NNW

14.6 C

21.7 C

21.7 C

21.7 C

0 W/m

0.00 mm

13:10

21.8 C

1011.0 hpa

60 %

12.9 km/h aus 117

25.7 km/h aus NNW

13.7 C

21.3 C

21.5 C

21.6 C

0 W/m

0.00 mm

13:15

21.8 C

1010.8 hpa

63 %

4.8 km/h aus 117

16.1 km/h aus N

14.5 C

21.8 C

21.8 C

21.8 C

0 W/m

0.00 mm

13:20

22.0 C

1010.8 hpa

62 %

8.0 km/h aus 115

19.3 km/h aus N

14.4 C

21.9 C

22.0 C

21.9 C

0 W/m

0.00 mm

13:25

22.2 C

1010.8 hpa

61 %

14.5 km/h aus 116

25.7 km/h aus NNE

14.3 C

21.3 C

21.4 C

22.1 C

0 W/m

0.00 mm

13:30

22.1 C

1010.7 hpa

60 %

9.7 km/h aus 115

24.1 km/h aus ENE

13.9 C

21.9 C

22.1 C

21.9 C

0 W/m

0.00 mm

13:35

22.3 C

1010.7 hpa

61 %

8.0 km/h aus 114

25.7 km/h aus NE

14.4 C

22.4 C

22.3 C

22.4 C

0 W/m

0.00 mm

13:40

22.6 C

1010.7 hpa

59 %

8.0 km/h aus 115

17.7 km/h aus N

14.2 C

22.7 C

22.6 C

22.7 C

0 W/m

0.00 mm

13:45

22.8 C

1010.6 hpa

59 %

8.0 km/h aus 112

24.1 km/h aus N

14.3 C

22.9 C

22.8 C

22.9 C

0 W/m

0.00 mm

13:50

22.7 C

1010.6 hpa

58 %

11.3 km/h aus 116

22.5 km/h aus NE

14.0 C

22.8 C

22.7 C

22.8 C

0 W/m

0.00 mm

13:55

22.9 C

1010.6 hpa

59 %

12.9 km/h aus 116

25.7 km/h aus NNE

14.5 C

22.8 C

22.6 C

23.1 C

0 W/m

0.00 mm

14:00

23.0 C

1010.2 hpa

58 %

12.9 km/h aus 115

27.4 km/h aus NNE

14.3 C

22.9 C

22.7 C

23.2 C

0 W/m

0.00 mm

14:05

23.1 C

1010.2 hpa

59 %

9.7 km/h aus 114

22.5 km/h aus N

14.6 C

23.3 C

23.1 C

23.3 C

0 W/m

0.00 mm

14:10

23.2 C

1010.2 hpa

58 %

8.0 km/h aus 117

17.7 km/h aus ENE

14.5 C

23.4 C

23.2 C

23.4 C

0 W/m

0.00 mm

14:15

23.5 C

1010.0 hpa

58 %

8.0 km/h aus 115

19.3 km/h aus NNE

14.8 C

23.8 C

23.5 C

23.8 C

0 W/m

0.00 mm

14:20

23.7 C

1010.0 hpa

59 %

11.3 km/h aus 117

30.6 km/h aus NNE

15.2 C

24.2 C

23.7 C

24.2 C

0 W/m

0.00 mm

14:25

23.5 C

1010.0 hpa

57 %

14.5 km/h aus 114

30.6 km/h aus NE

14.5 C

23.1 C

22.8 C

23.8 C

0 W/m

0.00 mm

14:30

23.7 C

1009.7 hpa

57 %

11.3 km/h aus 117

24.1 km/h aus ENE

14.7 C

24.1 C

23.7 C

24.1 C

0 W/m

0.00 mm

14:35

24.0 C

1009.7 hpa

57 %

11.3 km/h aus 114

27.4 km/h aus N

15.0 C

24.3 C

24.0 C

24.3 C

0 W/m

0.00 mm

14:40

24.3 C

1009.7 hpa

57 %

11.3 km/h aus 117

25.7 km/h aus N

15.2 C

24.6 C

24.3 C

24.6 C

0 W/m

0.00 mm

14:45

24.5 C

1009.6 hpa

57 %

11.3 km/h aus 115

19.3 km/h aus ENE

15.4 C

24.8 C

24.5 C

24.8 C

0 W/m

0.00 mm

14:50

24.4 C

1009.6 hpa

55 %

12.9 km/h aus 116

25.7 km/h aus NE

14.8 C

24.3 C

24.2 C

24.6 C

0 W/m

0.00 mm

14:55

24.6 C

1009.6 hpa

53 %

12.9 km/h aus 115

25.7 km/h aus NNE

14.3 C

24.4 C

24.3 C

24.7 C

0 W/m

0.00 mm

15:00

24.7 C

1009.5 hpa

54 %

11.3 km/h aus 116

27.4 km/h aus NNE

14.8 C

24.8 C

24.7 C

24.8 C

0 W/m

0.00 mm

15:05

24.8 C

1009.5 hpa

54 %

12.9 km/h aus 116

24.1 km/h aus NE

14.8 C

24.6 C

24.5 C

24.9 C

0 W/m

0.00 mm

15:10

25.1 C

1009.5 hpa

52 %

9.7 km/h aus 115

22.5 km/h aus NE

14.5 C

25.1 C

25.1 C

25.1 C

0 W/m

0.00 mm

15:15

25.4 C

1009.1 hpa

53 %

11.3 km/h aus 116

20.9 km/h aus NE

15.1 C

25.5 C

25.4 C

25.5 C

0 W/m

0.00 mm

15:20

25.3 C

1009.1 hpa

52 %

11.3 km/h aus 113

24.1 km/h aus NE

14.8 C

25.4 C

25.3 C

25.4 C

0 W/m

0.00 mm

15:25

25.2 C

1009.1 hpa

53 %

11.3 km/h aus 113

24.1 km/h aus NNW

15.0 C

25.3 C

25.2 C

25.3 C

0 W/m

0.00 mm

15:30

25.3 C

1009.0 hpa

52 %

12.9 km/h aus 116

27.4 km/h aus NE

14.7 C

25.1 C

25.0 C

25.3 C

0 W/m

0.00 mm

15:35

25.3 C

1009.0 hpa

53 %

9.7 km/h aus 115

19.3 km/h aus N

15.1 C

25.4 C

25.3 C

25.4 C

0 W/m

0.00 mm

15:40

25.6 C

1009.0 hpa

52 %

9.7 km/h aus 117

25.7 km/h aus NE

15.0 C

25.7 C

25.6 C

25.7 C

0 W/m

0.00 mm

15:45

25.6 C

1008.7 hpa

49 %

12.9 km/h aus 115

30.6 km/h aus N

14.1 C

25.2 C

25.3 C

25.5 C

0 W/m

0.00 mm

15:50

25.3 C

1008.7 hpa

49 %

19.3 km/h aus 115

30.6 km/h aus NE

13.8 C

23.8 C

23.9 C

25.2 C

0 W/m

0.00 mm

15:55

25.5 C

1008.7 hpa

50 %

12.9 km/h aus 115

22.5 km/h aus NE

14.3 C

25.2 C

25.2 C

25.5 C

0 W/m

0.00 mm

16:00

25.6 C

1008.5 hpa

49 %

11.3 km/h aus 115

25.7 km/h aus NE

14.1 C

25.6 C

25.6 C

25.6 C

0 W/m

0.00 mm

16:05

25.7 C

1008.5 hpa

50 %

11.3 km/h aus 115

29.0 km/h aus NNE

14.5 C

25.7 C

25.7 C

25.7 C

0 W/m

0.00 mm

16:10

25.9 C

1008.5 hpa

49 %

11.3 km/h aus 115

25.7 km/h aus N

14.4 C

25.9 C

25.9 C

25.9 C

0 W/m

0.00 mm

16:15

25.7 C

1008.1 hpa

49 %

11.3 km/h aus 116

20.9 km/h aus NE

14.2 C

25.7 C

25.7 C

25.7 C

0 W/m

0.00 mm

16:20

25.8 C

1008.1 hpa

49 %

9.7 km/h aus 116

20.9 km/h aus N

14.3 C

25.8 C

25.8 C

25.8 C

0 W/m

0.00 mm

16:25

25.9 C

1008.1 hpa

49 %

9.7 km/h aus 116

25.7 km/h aus N

14.4 C

25.9 C

25.9 C

25.9 C

0 W/m

0.00 mm

16:30

25.9 C

1008.0 hpa

48 %

12.9 km/h aus 116

32.2 km/h aus N

14.1 C

25.7 C

25.7 C

25.9 C

0 W/m

0.00 mm

16:35

25.9 C

1008.0 hpa

49 %

12.9 km/h aus 113

29.0 km/h aus NNE

14.4 C

25.7 C

25.7 C

25.9 C

0 W/m

0.00 mm

16:40

25.8 C

1008.0 hpa

48 %

16.1 km/h aus 116

29.0 km/h aus NE

14.0 C

24.8 C

24.9 C

25.8 C

0 W/m

0.00 mm

16:45

25.8 C

1007.8 hpa

49 %

11.3 km/h aus 114

19.3 km/h aus NNE

14.3 C

25.8 C

25.8 C

25.8 C

0 W/m

0.00 mm

16:50

25.9 C

1007.8 hpa

49 %

6.4 km/h aus 116

17.7 km/h aus NNW

14.4 C

25.9 C

25.9 C

25.9 C

0 W/m

0.00 mm

16:55

25.9 C

1007.8 hpa

49 %

9.7 km/h aus 117

25.7 km/h aus NNE

14.4 C

25.9 C

25.9 C

25.9 C

0 W/m

0.00 mm

17:00

25.9 C

1007.6 hpa

49 %

8.0 km/h aus 116

22.5 km/h aus NE

14.4 C

25.9 C

25.9 C

25.9 C

0 W/m

0.00 mm

17:05

26.0 C

1007.6 hpa

48 %

11.3 km/h aus 116

25.7 km/h aus NNE

14.1 C

26.0 C

26.0 C

26.0 C

0 W/m

0.00 mm

17:10

25.9 C

1007.6 hpa

47 %

11.3 km/h aus 116

20.9 km/h aus NE

13.8 C

25.9 C

25.9 C

25.9 C

0 W/m

0.00 mm

17:15

26.0 C

1007.5 hpa

47 %

11.3 km/h aus 115

20.9 km/h aus N

13.8 C

25.9 C

26.0 C

25.9 C

0 W/m

0.00 mm

17:20

25.9 C

1007.5 hpa

47 %

12.9 km/h aus 111

25.7 km/h aus NE

13.8 C

25.7 C

25.7 C

25.9 C

0 W/m

0.00 mm

17:25

25.9 C

1007.5 hpa

47 %

12.9 km/h aus 115

24.1 km/h aus NE

13.8 C

25.7 C

25.7 C

25.9 C

0 W/m

0.00 mm

17:30

25.7 C

1007.5 hpa

47 %

14.5 km/h aus 115

29.0 km/h aus NE

13.6 C

24.9 C

25.1 C

25.6 C

0 W/m

0.00 mm

17:35

25.6 C

1007.5 hpa

48 %

9.7 km/h aus 116

20.9 km/h aus ENE

13.8 C

25.6 C

25.6 C

25.6 C

0 W/m

0.00 mm

17:40

25.4 C

1007.5 hpa

48 %

9.7 km/h aus 115

22.5 km/h aus NNE

13.6 C

25.3 C

25.4 C

25.3 C

0 W/m

0.00 mm

17:45

25.4 C

1007.6 hpa

48 %

11.3 km/h aus 114

22.5 km/h aus NE

13.6 C

25.3 C

25.4 C

25.3 C

0 W/m

0.00 mm

17:50

25.4 C

1007.6 hpa

47 %

9.7 km/h aus 116

30.6 km/h aus NNE

13.3 C

25.2 C

25.4 C

25.2 C

0 W/m

0.00 mm

17:55

25.4 C

1007.6 hpa

48 %

9.7 km/h aus 115

19.3 km/h aus NNE

13.6 C

25.3 C

25.4 C

25.3 C

0 W/m

0.00 mm

18:00

25.3 C

1007.5 hpa

48 %

8.0 km/h aus 114

19.3 km/h aus ENE

13.5 C

25.2 C

25.3 C

25.2 C

0 W/m

0.00 mm

18:05

25.3 C

1007.5 hpa

49 %

6.4 km/h aus 115

19.3 km/h aus NE

13.8 C

25.2 C

25.3 C

25.2 C

0 W/m

0.00 mm

18:10

25.4 C

1007.5 hpa

49 %

4.8 km/h aus 115

14.5 km/h aus NNE

13.9 C

25.3 C

25.4 C

25.3 C

0 W/m

0.00 mm

18:15

25.4 C

1007.5 hpa

50 %

4.8 km/h aus 115

9.7 km/h aus NE

14.3 C

25.4 C

25.4 C

25.4 C

0 W/m

0.00 mm

18:20

25.2 C

1007.5 hpa

49 %

8.0 km/h aus 113

22.5 km/h aus ENE

13.7 C

25.1 C

25.2 C

25.1 C

0 W/m

0.00 mm

18:25

24.9 C

1007.5 hpa

50 %

12.9 km/h aus 111

22.5 km/h aus NE

13.8 C

24.6 C

24.7 C

24.8 C

0 W/m

0.00 mm

18:30

24.8 C

1007.1 hpa

52 %

8.0 km/h aus 115

19.3 km/h aus NE

14.3 C

24.8 C

24.8 C

24.8 C

0 W/m

0.00 mm

18:35

24.8 C

1007.1 hpa

52 %

3.2 km/h aus 117

9.7 km/h aus NE

14.3 C

24.8 C

24.8 C

24.8 C

0 W/m

0.00 mm

18:40

24.9 C

1007.1 hpa

52 %

6.4 km/h aus 115

19.3 km/h aus NE

14.4 C

24.9 C

24.9 C

24.9 C

0 W/m

0.00 mm

18:45

24.7 C

1007.4 hpa

51 %

11.3 km/h aus 117

24.1 km/h aus NNE

13.9 C

24.7 C

24.7 C

24.7 C

0 W/m

0.00 mm

18:50

24.5 C

1007.4 hpa

53 %

6.4 km/h aus 115

19.3 km/h aus N

14.3 C

24.6 C

24.5 C

24.6 C

0 W/m

0.00 mm

18:55

24.4 C

1007.4 hpa

53 %

6.4 km/h aus 113

14.5 km/h aus NNE

14.2 C

24.5 C

24.4 C

24.5 C

0 W/m

0.00 mm

19:00

24.2 C

1007.5 hpa

54 %

6.4 km/h aus 117

17.7 km/h aus NE

14.3 C

24.4 C

24.2 C

24.4 C

0 W/m

0.00 mm

19:05

24.1 C

1007.5 hpa

54 %

3.2 km/h aus 113

8.0 km/h aus NE

14.2 C

24.3 C

24.1 C

24.3 C

0 W/m

0.00 mm

19:10

23.9 C

1007.5 hpa

55 %

6.4 km/h aus 114

16.1 km/h aus NNE

14.3 C

24.2 C

23.9 C

24.2 C

0 W/m

0.00 mm

19:15

23.8 C

1007.5 hpa

55 %

4.8 km/h aus 112

16.1 km/h aus ENE

14.2 C

24.1 C

23.8 C

24.1 C

0 W/m

0.00 mm

19:20

23.7 C

1007.5 hpa

56 %

1.6 km/h aus 115

8.0 km/h aus ENE

14.4 C

23.9 C

23.7 C

23.9 C

0 W/m

0.00 mm

19:25

23.4 C

1007.5 hpa

56 %

1.6 km/h aus 113

4.8 km/h aus ENE

14.2 C

23.7 C

23.4 C

23.7 C

0 W/m

0.00 mm

19:30

23.3 C

1007.7 hpa

58 %

1.6 km/h aus 111

6.4 km/h aus ENE

14.5 C

23.6 C

23.3 C

23.6 C

0 W/m

0.00 mm

19:35

23.1 C

1007.7 hpa

58 %

1.6 km/h aus 114

8.0 km/h aus NE

14.4 C

23.3 C

23.1 C

23.3 C

0 W/m

0.00 mm

19:40

22.9 C

1007.7 hpa

58 %

0.0 km/h aus 115

6.4 km/h aus NE

14.2 C

23.1 C

22.9 C

23.1 C

0 W/m

0.00 mm

19:45

22.8 C

1008.0 hpa

60 %

1.6 km/h aus 114

4.8 km/h aus NE

14.6 C

23.0 C

22.8 C

23.0 C

0 W/m

0.00 mm

19:50

22.5 C

1008.0 hpa

61 %

0.0 km/h aus 114

3.2 km/h aus NE

14.6 C

22.6 C

22.5 C

22.6 C

0 W/m

0.00 mm

19:55

22.2 C

1008.0 hpa

62 %

0.0 km/h aus 108

1.6 km/h aus NE

14.6 C

22.3 C

22.2 C

22.3 C

0 W/m

0.00 mm

20:00

22.0 C

1008.0 hpa

64 %

0.0 km/h aus 113

3.2 km/h aus NE

14.9 C

22.1 C

22.0 C

22.1 C

0 W/m

0.00 mm

20:05

21.8 C

1008.0 hpa

64 %

0.0 km/h aus 109

3.2 km/h aus NE

14.7 C

21.8 C

21.8 C

21.8 C

0 W/m

0.00 mm

20:10

21.6 C

1008.0 hpa

65 %

1.6 km/h aus 112

3.2 km/h aus NE

14.7 C

21.5 C

21.6 C

21.5 C

0 W/m

0.00 mm

20:15

21.5 C

1008.1 hpa

64 %

1.6 km/h aus 107

4.8 km/h aus NE

14.4 C

21.4 C

21.5 C

21.4 C

0 W/m

0.00 mm

20:20

21.3 C

1008.1 hpa

65 %

1.6 km/h aus 112

4.8 km/h aus NE

14.4 C

21.2 C

21.3 C

21.2 C

0 W/m

0.00 mm

20:25

21.3 C

1008.1 hpa

64 %

1.6 km/h aus 113

6.4 km/h aus NE

14.2 C

21.1 C

21.3 C

21.1 C

0 W/m

0.00 mm

20:30

21.1 C

1008.2 hpa

65 %

0.0 km/h aus 116

3.2 km/h aus NE

14.3 C

20.9 C

21.1 C

20.9 C

0 W/m

0.00 mm

20:35

20.9 C

1008.2 hpa

66 %

0.0 km/h aus 113

3.2 km/h aus NE

14.3 C

20.8 C

20.9 C

20.8 C

0 W/m

0.00 mm

20:40

20.7 C

1008.2 hpa

67 %

1.6 km/h aus 112

4.8 km/h aus NE

14.4 C

20.7 C

20.7 C

20.7 C

0 W/m

0.00 mm

20:45

20.7 C

1008.0 hpa

67 %

1.6 km/h aus 110

3.2 km/h aus NE

14.3 C

20.7 C

20.7 C

20.7 C

0 W/m

0.00 mm

20:50

20.5 C

1008.0 hpa

68 %

1.6 km/h aus 110

4.8 km/h aus NE

14.4 C

20.6 C

20.5 C

20.6 C

0 W/m

0.00 mm

20:55

20.2 C

1008.0 hpa

69 %

3.2 km/h aus 107

4.8 km/h aus NE

14.3 C

20.4 C

20.2 C

20.4 C

0 W/m

0.00 mm

21:00

20.0 C

1008.0 hpa

70 %

1.6 km/h aus 110

6.4 km/h aus NE

14.4 C

20.3 C

20.0 C

20.3 C

0 W/m

0.00 mm

21:05

19.8 C

1008.0 hpa

70 %

4.8 km/h aus 108

8.0 km/h aus NNE

14.1 C

20.1 C

19.8 C

20.1 C

0 W/m

0.00 mm

21:10

19.7 C

1008.0 hpa

70 %

3.2 km/h aus 105

9.7 km/h aus N

14.1 C

20.0 C

19.7 C

20.0 C

0 W/m

0.00 mm

21:15

19.6 C

1008.1 hpa

70 %

4.8 km/h aus 103

9.7 km/h aus N

14.0 C

19.9 C

19.6 C

19.9 C

0 W/m

0.00 mm

21:20

19.4 C

1008.1 hpa

70 %

3.2 km/h aus 111

8.0 km/h aus N

13.8 C

19.6 C

19.4 C

19.6 C

0 W/m

0.00 mm

21:25

19.3 C

1008.1 hpa

71 %

3.2 km/h aus 112

8.0 km/h aus N

13.9 C

19.5 C

19.3 C

19.5 C

0 W/m

0.00 mm

21:30

19.2 C

1008.3 hpa

71 %

3.2 km/h aus 110

8.0 km/h aus N

13.8 C

19.4 C

19.2 C

19.4 C

0 W/m

0.00 mm

21:35

19.1 C

1008.3 hpa

71 %

3.2 km/h aus 106

6.4 km/h aus N

13.7 C

19.3 C

19.1 C

19.3 C

0 W/m

0.00 mm

21:40

19.1 C

1008.3 hpa

72 %

1.6 km/h aus 110

4.8 km/h aus N

13.9 C

19.3 C

19.1 C

19.3 C

0 W/m

0.00 mm

21:45

18.9 C

1008.5 hpa

72 %

1.6 km/h aus 109

4.8 km/h aus N

13.8 C

19.1 C

18.9 C

19.1 C

0 W/m

0.00 mm

21:50

18.8 C

1008.5 hpa

72 %

0.0 km/h aus 112

3.2 km/h aus N

13.6 C

18.9 C

18.8 C

18.9 C

0 W/m

0.00 mm

21:55

18.4 C

1008.5 hpa

73 %

1.6 km/h aus 112

4.8 km/h aus N

13.5 C

18.6 C

18.4 C

18.6 C

0 W/m

0.00 mm

22:00

18.1 C

1008.6 hpa

75 %

1.6 km/h aus 110

4.8 km/h aus N

13.6 C

18.2 C

18.1 C

18.2 C

0 W/m

0.00 mm

22:05

18.1 C

1008.6 hpa

76 %

0.0 km/h aus 100

1.6 km/h aus N

13.8 C

18.2 C

18.1 C

18.2 C

0 W/m

0.00 mm

22:05

18.1 C

1008.6 hpa

76 %

0.0 km/h aus 100

1.6 km/h aus N

13.8 C

18.2 C

18.1 C

18.2 C

0 W/m

0.00 mm

22:10

17.9 C

1008.6 hpa

77 %

3.2 km/h aus 109

6.4 km/h aus N

13.8 C

18.1 C

17.9 C

18.1 C

0 W/m

0.00 mm

22:10

17.9 C

1008.6 hpa

77 %

3.2 km/h aus 109

6.4 km/h aus N

13.8 C

18.1 C

17.9 C

18.1 C

0 W/m

0.00 mm

22:15

17.9 C

1008.6 hpa

76 %

3.2 km/h aus 107

6.4 km/h aus N

13.6 C

18.0 C

17.9 C

18.0 C

0 W/m

0.00 mm

22:15

17.9 C

1008.6 hpa

76 %

3.2 km/h aus 107

6.4 km/h aus N

13.6 C

18.0 C

17.9 C

18.0 C

0 W/m

0.00 mm

22:20

18.1 C

1008.6 hpa

75 %

1.6 km/h aus 110

4.8 km/h aus N

13.6 C

18.2 C

18.1 C

18.2 C

0 W/m

0.00 mm

22:20

18.1 C

1008.6 hpa

75 %

1.6 km/h aus 110

4.8 km/h aus N

13.6 C

18.2 C

18.1 C

18.2 C

0 W/m

0.00 mm

22:25

18.1 C

1008.6 hpa

74 %

1.6 km/h aus 111

4.8 km/h aus N

13.4 C

18.2 C

18.1 C

18.2 C

0 W/m

0.00 mm

22:25

18.1 C

1008.6 hpa

74 %

1.6 km/h aus 111

4.8 km/h aus N

13.4 C

18.2 C

18.1 C

18.2 C

0 W/m

0.00 mm

22:30

18.0 C

1008.6 hpa

74 %

1.6 km/h aus 107

3.2 km/h aus N

13.3 C

18.1 C

18.0 C

18.1 C

0 W/m

0.00 mm

22:30

18.0 C

1008.6 hpa

74 %

1.6 km/h aus 107

3.2 km/h aus N

13.3 C

18.1 C

18.0 C

18.1 C

0 W/m

0.00 mm

22:35

17.8 C

1008.6 hpa

75 %

1.6 km/h aus 106

6.4 km/h aus N

13.3 C

17.8 C

17.8 C

17.8 C

0 W/m

0.00 mm

22:35

17.8 C

1008.6 hpa

75 %

1.6 km/h aus 106

6.4 km/h aus N

13.3 C

17.8 C

17.8 C

17.8 C

0 W/m

0.00 mm

22:40

17.8 C

1008.6 hpa

73 %

3.2 km/h aus 110

6.4 km/h aus N

12.9 C

17.8 C

17.8 C

17.8 C

0 W/m

0.00 mm

22:40

17.8 C

1008.6 hpa

73 %

3.2 km/h aus 110

6.4 km/h aus N

12.9 C

17.8 C

17.8 C

17.8 C

0 W/m

0.00 mm

22:45

17.7 C

1008.6 hpa

74 %

1.6 km/h aus 111

6.4 km/h aus N

13.0 C

17.7 C

17.7 C

17.7 C

0 W/m

0.00 mm

22:45

17.7 C

1008.6 hpa

74 %

1.6 km/h aus 111

6.4 km/h aus N

13.0 C

17.7 C

17.7 C

17.7 C

0 W/m

0.00 mm

22:50

17.6 C

1008.6 hpa

74 %

0.0 km/h aus 114

6.4 km/h aus N

12.9 C

17.6 C

17.6 C

17.6 C

0 W/m

0.00 mm

22:50

17.6 C

1008.6 hpa

74 %

0.0 km/h aus 114

6.4 km/h aus N

12.9 C

17.6 C

17.6 C

17.6 C

0 W/m

0.00 mm

22:55

17.6 C

1008.6 hpa

74 %

3.2 km/h aus 114

8.0 km/h aus N

12.9 C

17.6 C

17.6 C

17.6 C

0 W/m

0.00 mm

22:55

17.6 C

1008.6 hpa

74 %

3.2 km/h aus 114

8.0 km/h aus N

12.9 C

17.6 C

17.6 C

17.6 C

0 W/m

0.00 mm

23:00

17.5 C

1008.8 hpa

74 %

3.2 km/h aus 111

6.4 km/h aus N

12.8 C

17.5 C

17.5 C

17.5 C

0 W/m

0.00 mm

23:00

17.5 C

1008.8 hpa

74 %

3.2 km/h aus 111

6.4 km/h aus N

12.8 C

17.5 C

17.5 C

17.5 C

0 W/m

0.00 mm

23:05

17.3 C

1008.8 hpa

74 %

1.6 km/h aus 111

6.4 km/h aus N

12.7 C

17.3 C

17.3 C

17.3 C

0 W/m

0.00 mm

23:05

17.3 C

1008.8 hpa

74 %

1.6 km/h aus 111

6.4 km/h aus N

12.7 C

17.3 C

17.3 C

17.3 C

0 W/m

0.00 mm

23:10

17.2 C

1008.8 hpa

75 %

3.2 km/h aus 113

6.4 km/h aus N

12.7 C

17.1 C

17.2 C

17.1 C

0 W/m

0.00 mm

23:10

17.2 C

1008.8 hpa

75 %

3.2 km/h aus 113

6.4 km/h aus N

12.7 C

17.1 C

17.2 C

17.1 C

0 W/m

0.00 mm

23:15

17.1 C

1008.9 hpa

75 %

1.6 km/h aus 114

6.4 km/h aus N

12.6 C

17.0 C

17.1 C

17.0 C

0 W/m

0.00 mm

23:15

17.1 C

1008.9 hpa

75 %

1.6 km/h aus 114

6.4 km/h aus N

12.6 C

17.0 C

17.1 C

17.0 C

0 W/m

0.00 mm

23:20

17.0 C

1008.9 hpa

75 %

1.6 km/h aus 111

4.8 km/h aus N

12.5 C

16.9 C

17.0 C

16.9 C

0 W/m

0.00 mm

23:20

17.0 C

1008.9 hpa

75 %

1.6 km/h aus 111

4.8 km/h aus N

12.5 C

16.9 C

17.0 C

16.9 C

0 W/m

0.00 mm

23:25

16.9 C

1008.9 hpa

76 %

3.2 km/h aus 110

9.7 km/h aus N

12.6 C

16.8 C

16.9 C

16.8 C

0 W/m

0.00 mm

23:25

16.9 C

1008.9 hpa

76 %

3.2 km/h aus 110

9.7 km/h aus N

12.6 C

16.8 C

16.9 C

16.8 C

0 W/m

0.00 mm

23:30

16.9 C

1009.0 hpa

76 %

3.2 km/h aus 109

9.7 km/h aus N

12.6 C

16.8 C

16.9 C

16.8 C

0 W/m

0.00 mm

23:30

16.9 C

1009.0 hpa

76 %

3.2 km/h aus 109

9.7 km/h aus N

12.6 C

16.8 C

16.9 C

16.8 C

0 W/m

0.00 mm

23:35

16.9 C

1009.0 hpa

75 %

6.4 km/h aus 114

14.5 km/h aus N

12.4 C

16.8 C

16.9 C

16.8 C

0 W/m

0.00 mm

23:35

16.9 C

1009.0 hpa

75 %

6.4 km/h aus 114

14.5 km/h aus N

12.4 C

16.8 C

16.9 C

16.8 C

0 W/m

0.00 mm

23:40

16.8 C

1009.0 hpa

76 %

6.4 km/h aus 110

16.1 km/h aus N

12.6 C

16.8 C

16.8 C

16.8 C

0 W/m

0.00 mm

23:40

16.8 C

1009.0 hpa

76 %

6.4 km/h aus 110

16.1 km/h aus N

12.6 C

16.8 C

16.8 C

16.8 C

0 W/m

0.00 mm

23:45

16.8 C

1009.0 hpa

76 %

6.4 km/h aus 109

14.5 km/h aus N

12.5 C

16.7 C

16.8 C

16.7 C

0 W/m

0.00 mm

23:45

16.8 C

1009.0 hpa

76 %

6.4 km/h aus 109

14.5 km/h aus N

12.5 C

16.7 C

16.8 C

16.7 C

0 W/m

0.00 mm

23:50

16.7 C

1009.0 hpa

75 %

4.8 km/h aus 107

12.9 km/h aus N

12.2 C

16.6 C

16.7 C

16.6 C

0 W/m

0.00 mm

23:50

16.7 C

1009.0 hpa

75 %

4.8 km/h aus 107

12.9 km/h aus N

12.2 C

16.6 C

16.7 C

16.6 C

0 W/m

0.00 mm

23:55

16.6 C

1009.0 hpa

75 %

4.8 km/h aus 105

9.7 km/h aus N

12.2 C

16.5 C

16.6 C

16.5 C

0 W/m

0.00 mm

23:55

16.6 C

1009.0 hpa

75 %

4.8 km/h aus 105

9.7 km/h aus N

12.2 C

16.5 C

16.6 C

16.5 C

0 W/m

0.00 mm